Вернуться в каталог

CZ-6A DEB

АктивенPO
NORAD 60765·DEBRIS·🇨🇳 China

Запущен Aug 6, 2024 с Taiyuan Satellite Launch Center

Loading…

Ближайшие Пролёты (ближайшие 24 часа)

TLE

СвежийSource: Space-Track

Эпоха: Sep 14, 2026, 09:18 UTC

1 60765U 24140EQ  26257.38783844  .00001603  00000-0  36292-3 0  9997
2 60765  88.7679 238.1545 0098654 267.8043  91.1866 14.52724040110610

Отслеживайте CZ-6A DEB в реальном времени с AllMySat

Download on the App Store